Time,TemperatureF,DewpointF,PressureIn,WindDirection,WindDirectionDegrees,WindSpeedMPH,WindSpeedGustMPH,Humidity,HourlyPrecipIn,Conditions,Clouds,dailyrainin,SoftwareType,DateUTC
2013-01-03 00:03:00,23.0,23.0,29.99,North,0,6.0,-999.0,100,0.00,,,0.00,Wunderground v.1.15,2013-01-03 05:03:00,
2013-01-03 00:05:00,22.4,22.4,30.00,NNW,329,4.0,5.0,100,0.00,,,0.00,Wunderground v.1.15,2013-01-03 05:05:00,
2013-01-03 00:08:00,23.0,23.0,29.99,North,0,6.0,-999.0,100,0.00,,,0.00,Wunderground v.1.15,2013-01-03 05:08:00,
2013-01-03 00:10:00,22.4,22.4,30.00,North,4,5.0,5.0,100,0.00,,,0.00,Wunderground v.1.15,2013-01-03 05:10:00,
2013-01-03 00:13:00,23.0,23.0,29.99,North,0,6.0,-999.0,100,0.00,,,0.00,Wunderground v.1.15,2013-01-03 05:13:00,
2013-01-03 00:15:00,22.2,22.2,30.01,NNW,328,4.0,10.0,100,0.00,,,0.00,Wunderground v.1.15,2013-01-03 05:15:00,
2013-01-03 00:18:00,23.0,23.0,29.99,North,0,6.0,-999.0,100,0.00,,,0.00,Wunderground v.1.15,2013-01-03 05:18:00,
2013-01-03 00:20:00,22.2,22.2,30.01,North,7,4.0,5.0,100,0.00,,,0.00,Wunderground v.1.15,2013-01-03 05:20:00,
2013-01-03 00:23:00,22.9,22.9,30.00,NW,315,5.0,-999.0,100,0.00,,,0.00,Wunderground v.1.15,2013-01-03 05:23:00,
2013-01-03 00:28:00,22.9,22.9,30.00,NW,315,5.0,-999.0,100,0.00,,,0.00,Wunderground v.1.15,2013-01-03 05:28:00,
2013-01-03 00:30:00,22.1,22.1,30.00,North,352,5.0,5.0,100,0.00,,,0.00,Wunderground v.1.15,2013-01-03 05:30:00,
2013-01-03 00:33:00,22.9,22.9,30.00,NW,315,5.0,-999.0,100,0.00,,,0.00,Wunderground v.1.15,2013-01-03 05:33:00,
2013-01-03 00:35:00,21.9,21.9,30.00,North,0,6.0,6.0,100,0.00,,,0.00,Wunderground v.1.15,2013-01-03 05:35:00,
2013-01-03 00:38:00,22.7,22.7,29.99,NW,315,5.0,-999.0,100,0.00,,,0.00,Wunderground v.1.15,2013-01-03 05:38:00,
2013-01-03 00:40:00,21.8,21.8,30.00,North,2,6.0,10.0,100,0.00,,,0.00,Wunderground v.1.15,2013-01-03 05:40:00,
2013-01-03 00:43:00,22.7,22.7,29.99,NW,315,5.0,-999.0,100,0.00,,,0.00,Wunderground v.1.15,2013-01-03 05:43:00,
2013-01-03 00:45:00,21.6,21.6,30.01,NNW,335,6.0,10.0,100,0.00,,,0.00,Wunderground v.1.15,2013-01-03 05:45:00,
2013-01-03 00:48:00,22.7,22.7,29.99,NW,315,5.0,-999.0,100,0.00,,,0.00,Wunderground v.1.15,2013-01-03 05:48:00,
2013-01-03 00:50:00,21.6,21.6,30.01,North,9,6.0,6.0,100,0.00,,,0.00,Wunderground v.1.15,2013-01-03 05:50:00,
2013-01-03 00:53:00,22.5,22.5,30.00,NNW,338,4.0,-999.0,100,0.00,,,0.00,Wunderground v.1.15,2013-01-03 05:53:00,
2013-01-03 00:55:00,21.4,21.4,30.01,NNE,26,6.0,7.0,100,0.00,,,0.00,Wunderground v.1.15,2013-01-03 05:55:00,
2013-01-03 00:58:00,22.5,22.5,30.00,NNW,338,4.0,-999.0,100,0.00,,,0.00,Wunderground v.1.15,2013-01-03 05:58:00,
2013-01-03 01:03:00,22.5,22.5,30.00,NNW,338,4.0,-999.0,100,0.00,,,0.00,Wunderground v.1.15,2013-01-03 06:03:00,
2013-01-03 01:05:00,21.1,21.1,30.01,North,349,6.0,8.0,100,0.00,,,0.00,Wunderground v.1.15,2013-01-03 06:05:00,
2013-01-03 01:08:00,22.2,22.2,30.01,NNW,338,4.0,-999.0,100,0.00,,,0.00,Wunderground v.1.15,2013-01-03 06:08:00,
2013-01-03 01:10:00,21.1,21.1,30.01,NNE,16,5.0,5.0,100,0.00,,,0.00,Wunderground v.1.15,2013-01-03 06:10:00,
2013-01-03 01:13:00,22.2,22.2,30.01,NNW,338,4.0,-999.0,100,0.00,,,0.00,Wunderground v.1.15,2013-01-03 06:13:00,
2013-01-03 01:15:00,21.0,21.0,30.02,NNW,342,5.0,5.0,100,0.00,,,0.00,Wunderground v.1.15,2013-01-03 06:15:00,
2013-01-03 01:18:00,22.2,22.2,30.01,NNW,338,4.0,-999.0,100,0.00,,,0.00,Wunderground v.1.15,2013-01-03 06:18:00,
2013-01-03 01:20:00,20.8,20.8,30.02,North,356,6.0,6.0,100,0.00,,,0.00,Wunderground v.1.15,2013-01-03 06:20:00,
2013-01-03 01:23:00,22.1,22.1,30.00,NW,315,5.0,-999.0,100,0.00,,,0.00,Wunderground v.1.15,2013-01-03 06:23:00,
2013-01-03 01:28:00,22.1,22.1,30.00,NW,315,5.0,-999.0,100,0.00,,,0.00,Wunderground v.1.15,2013-01-03 06:28:00,
2013-01-03 01:30:00,20.3,20.3,30.02,NNW,339,6.0,13.0,100,0.00,,,0.00,Wunderground v.1.15,2013-01-03 06:30:00,
2013-01-03 01:33:00,22.1,22.1,30.00,NW,315,5.0,-999.0,100,0.00,,,0.00,Wunderground v.1.15,2013-01-03 06:33:00,
2013-01-03 01:35:00,20.2,20.2,30.02,NNW,336,6.0,13.0,100,0.00,,,0.00,Wunderground v.1.15,2013-01-03 06:35:00,
2013-01-03 01:38:00,21.6,21.6,30.01,North,0,6.0,-999.0,100,0.00,,,0.00,Wunderground v.1.15,2013-01-03 06:38:00,
2013-01-03 01:40:00,20.0,20.0,30.02,North,354,5.0,5.0,100,0.00,,,0.00,Wunderground v.1.15,2013-01-03 06:40:00,
2013-01-03 01:43:00,21.6,21.6,30.01,North,0,6.0,-999.0,100,0.00,,,0.00,Wunderground v.1.15,2013-01-03 06:43:00,
2013-01-03 01:45:00,19.9,19.9,30.03,NNW,335,5.0,5.0,100,0.00,,,0.00,Wunderground v.1.15,2013-01-03 06:45:00,
2013-01-03 01:48:00,21.6,21.6,30.01,North,0,6.0,-999.0,100,0.00,,,0.00,Wunderground v.1.15,2013-01-03 06:48:00,
2013-01-03 01:50:00,19.7,19.7,30.03,NNE,17,6.0,6.0,100,0.00,,,0.00,Wunderground v.1.15,2013-01-03 06:50:00,
2013-01-03 01:53:00,21.3,21.3,30.01,NNW,338,6.0,-999.0,100,0.00,,,0.00,Wunderground v.1.15,2013-01-03 06:53:00,
2013-01-03 01:58:00,21.3,21.3,30.01,NNW,338,6.0,-999.0,100,0.00,,,0.00,Wunderground v.1.15,2013-01-03 06:58:00,
2013-01-03 02:00:00,19.4,19.4,30.03,NW,318,6.0,6.0,100,0.00,,,0.00,Wunderground v.1.15,2013-01-03 07:00:00,
2013-01-03 02:03:00,21.3,21.3,30.01,NNW,338,6.0,-999.0,100,0.00,,,0.00,Wunderground v.1.15,2013-01-03 07:03:00,
2013-01-03 02:05:00,19.2,19.2,30.03,NW,323,5.0,7.0,100,0.00,,,0.00,Wunderground v.1.15,2013-01-03 07:05:00,
2013-01-03 02:08:00,21.0,21.0,30.02,North,0,5.0,-999.0,100,0.00,,,0.00,Wunderground v.1.15,2013-01-03 07:08:00,
2013-01-03 02:13:00,21.0,21.0,30.02,North,0,5.0,-999.0,100,0.00,,,0.00,Wunderground v.1.15,2013-01-03 07:13:00,
2013-01-03 02:15:00,18.9,18.9,30.04,WNW,291,5.0,8.0,100,0.00,,,0.00,Wunderground v.1.15,2013-01-03 07:15:00,
2013-01-03 02:18:00,21.0,21.0,30.02,North,0,5.0,-999.0,100,0.00,,,0.00,Wunderground v.1.15,2013-01-03 07:18:00,
2013-01-03 02:20:00,18.8,18.8,30.04,NNE,23,5.0,5.0,100,0.00,,,0.00,Wunderground v.1.15,2013-01-03 07:20:00,
2013-01-03 02:23:00,20.3,20.3,30.02,NNW,338,6.0,-999.0,100,0.00,,,0.00,Wunderground v.1.15,2013-01-03 07:23:00,
2013-01-03 02:28:00,20.3,20.3,30.02,NNW,338,6.0,-999.0,100,0.00,,,0.00,Wunderground v.1.15,2013-01-03 07:28:00,
2013-01-03 02:30:00,18.6,18.6,30.04,NNW,336,6.0,6.0,100,0.00,,,0.00,Wunderground v.1.15,2013-01-03 07:30:00,
2013-01-03 02:33:00,20.3,20.3,30.02,NNW,338,6.0,-999.0,100,0.00,,,0.00,Wunderground v.1.15,2013-01-03 07:33:00,
2013-01-03 02:38:00,19.9,19.9,30.03,NNW,338,5.0,-999.0,100,0.00,,,0.00,Wunderground v.1.15,2013-01-03 07:38:00,
2013-01-03 02:40:00,18.3,18.3,30.04,North,10,5.0,6.0,100,0.00,,,0.00,Wunderground v.1.15,2013-01-03 07:40:00,
2013-01-03 02:43:00,19.9,19.9,30.03,NNW,338,5.0,-999.0,100,0.00,,,0.00,Wunderground v.1.15,2013-01-03 07:43:00,
2013-01-03 02:45:00,18.3,18.3,30.03,NNE,14,7.0,7.0,100,0.00,,,0.00,Wunderground v.1.15,2013-01-03 07:45:00,
2013-01-03 02:48:00,19.9,19.9,30.03,NNW,338,5.0,-999.0,100,0.00,,,0.00,Wunderground v.1.15,2013-01-03 07:48:00,
2013-01-03 02:50:00,18.1,18.1,30.03,NNW,330,7.0,8.0,100,0.00,,,0.00,Wunderground v.1.15,2013-01-03 07:50:00,
2013-01-03 02:53:00,19.4,19.4,30.03,NNW,338,6.0,-999.0,100,0.00,,,0.00,Wunderground v.1.15,2013-01-03 07:53:00,
2013-01-03 02:58:00,19.4,19.4,30.03,NNW,338,6.0,-999.0,100,0.00,,,0.00,Wunderground v.1.15,2013-01-03 07:58:00,
2013-01-03 03:00:00,18.0,18.0,30.03,NW,325,7.0,7.0,100,0.00,,,0.00,Wunderground v.1.15,2013-01-03 08:00:00,
2013-01-03 03:03:00,19.4,19.4,30.03,NNW,338,6.0,-999.0,100,0.00,,,0.00,Wunderground v.1.15,2013-01-03 08:03:00,
2013-01-03 03:08:00,18.9,18.9,30.04,NNW,338,5.0,-999.0,100,0.00,,,0.00,Wunderground v.1.15,2013-01-03 08:08:00,
2013-01-03 03:10:00,17.7,17.7,30.03,NW,311,6.0,6.0,100,0.00,,,0.00,Wunderground v.1.15,2013-01-03 08:10:00,
2013-01-03 03:13:00,18.9,18.9,30.04,NNW,338,5.0,-999.0,100,0.00,,,0.00,Wunderground v.1.15,2013-01-03 08:13:00,
2013-01-03 03:15:00,17.7,17.7,30.02,NNW,336,5.0,6.0,100,0.00,,,0.00,Wunderground v.1.15,2013-01-03 08:15:00,
2013-01-03 03:18:00,18.9,18.9,30.04,NNW,338,5.0,-999.0,100,0.00,,,0.00,Wunderground v.1.15,2013-01-03 08:18:00,
2013-01-03 03:20:00,17.5,17.5,30.02,North,6,5.0,5.0,100,0.00,,,0.00,Wunderground v.1.15,2013-01-03 08:20:00,
2013-01-03 03:23:00,18.6,18.6,30.04,North,0,5.0,-999.0,100,0.00,,,0.00,Wunderground v.1.15,2013-01-03 08:23:00,
2013-01-03 03:25:00,17.3,17.3,30.02,NNW,336,5.0,5.0,100,0.00,,,0.00,Wunderground v.1.15,2013-01-03 08:25:00,
2013-01-03 03:28:00,18.6,18.6,30.04,North,0,5.0,-999.0,100,0.00,,,0.00,Wunderground v.1.15,2013-01-03 08:28:00,
2013-01-03 03:30:00,17.3,17.3,30.03,NNW,339,5.0,5.0,100,0.00,,,0.00,Wunderground v.1.15,2013-01-03 08:30:00,
2013-01-03 03:33:00,18.6,18.6,30.04,North,0,5.0,-999.0,100,0.00,,,0.00,Wunderground v.1.15,2013-01-03 08:33:00,
2013-01-03 03:35:00,17.2,17.2,30.03,North,0,5.0,5.0,100,0.00,,,0.00,Wunderground v.1.15,2013-01-03 08:35:00,
2013-01-03 03:38:00,18.3,18.3,30.03,NNW,338,6.0,-999.0,100,0.00,,,0.00,Wunderground v.1.15,2013-01-03 08:38:00,
2013-01-03 03:43:00,18.3,18.3,30.03,NNW,338,6.0,-999.0,100,0.00,,,0.00,Wunderground v.1.15,2013-01-03 08:43:00,
2013-01-03 03:45:00,17.2,17.2,30.02,NNW,335,5.0,6.0,100,0.00,,,0.00,Wunderground v.1.15,2013-01-03 08:45:00,
2013-01-03 03:48:00,18.3,18.3,30.03,NNW,338,6.0,-999.0,100,0.00,,,0.00,Wunderground v.1.15,2013-01-03 08:48:00,
2013-01-03 03:53:00,18.0,18.0,30.03,NNW,338,6.0,-999.0,100,0.00,,,0.00,Wunderground v.1.15,2013-01-03 08:53:00,
2013-01-03 03:55:00,17.0,17.0,30.02,NW,321,6.0,11.0,100,0.00,,,0.00,Wunderground v.1.15,2013-01-03 08:55:00,
2013-01-03 03:58:00,18.0,18.0,30.03,NNW,338,6.0,-999.0,100,0.00,,,0.00,Wunderground v.1.15,2013-01-03 08:58:00,
2013-01-03 04:00:00,16.9,16.9,30.02,NW,322,5.0,5.0,100,0.00,,,0.00,Wunderground v.1.15,2013-01-03 09:00:00,
2013-01-03 04:03:00,18.0,18.0,30.03,NNW,338,6.0,-999.0,100,0.00,,,0.00,Wunderground v.1.15,2013-01-03 09:03:00,
2013-01-03 04:05:00,16.9,16.9,30.02,NNE,26,5.0,5.0,100,0.00,,,0.00,Wunderground v.1.15,2013-01-03 09:05:00,
2013-01-03 04:08:00,17.7,17.7,30.02,NNW,338,5.0,-999.0,100,0.00,,,0.00,Wunderground v.1.15,2013-01-03 09:08:00,
2013-01-03 04:13:00,17.7,17.7,30.02,NNW,338,5.0,-999.0,100,0.00,,,0.00,Wunderground v.1.15,2013-01-03 09:13:00,
2013-01-03 04:15:00,16.7,16.7,30.03,North,7,4.0,5.0,100,0.00,,,0.00,Wunderground v.1.15,2013-01-03 09:15:00,
2013-01-03 04:18:00,17.7,17.7,30.02,NNW,338,5.0,-999.0,100,0.00,,,0.00,Wunderground v.1.15,2013-01-03 09:18:00,
2013-01-03 04:20:00,16.7,16.7,30.03,NNE,24,4.0,4.0,100,0.00,,,0.00,Wunderground v.1.15,2013-01-03 09:20:00,
2013-01-03 04:23:00,17.3,17.3,30.03,NNW,338,5.0,-999.0,100,0.00,,,0.00,Wunderground v.1.15,2013-01-03 09:23:00,
2013-01-03 04:25:00,16.7,16.7,30.03,NNE,28,5.0,5.0,100,0.00,,,0.00,Wunderground v.1.15,2013-01-03 09:25:00,
2013-01-03 04:28:00,17.3,17.3,30.03,NNW,338,5.0,-999.0,100,0.00,,,0.00,Wunderground v.1.15,2013-01-03 09:28:00,
2013-01-03 04:30:00,16.7,16.7,30.03,NW,321,4.0,4.0,100,0.00,,,0.00,Wunderground v.1.15,2013-01-03 09:30:00,
2013-01-03 04:33:00,17.3,17.3,30.03,NNW,338,5.0,-999.0,100,0.00,,,0.00,Wunderground v.1.15,2013-01-03 09:33:00,
2013-01-03 04:35:00,16.7,16.7,30.03,NNW,342,3.0,4.0,100,0.00,,,0.00,Wunderground v.1.15,2013-01-03 09:35:00,
2013-01-03 04:38:00,17.2,17.2,30.02,North,0,5.0,-999.0,100,0.00,,,0.00,Wunderground v.1.15,2013-01-03 09:38:00,
2013-01-03 04:43:00,17.2,17.2,30.02,North,0,5.0,-999.0,100,0.00,,,0.00,Wunderground v.1.15,2013-01-03 09:43:00,
2013-01-03 04:45:00,16.7,16.7,30.03,North,0,4.0,4.0,100,0.00,,,0.00,Wunderground v.1.15,2013-01-03 09:45:00,
2013-01-03 04:48:00,17.2,17.2,30.02,North,0,5.0,-999.0,100,0.00,,,0.00,Wunderground v.1.15,2013-01-03 09:48:00,
2013-01-03 04:50:00,16.9,16.9,30.03,North,0,3.0,3.0,100,0.00,,,0.00,Wunderground v.1.15,2013-01-03 09:50:00,
2013-01-03 04:53:00,16.9,16.9,30.02,NW,315,6.0,-999.0,100,0.00,,,0.00,Wunderground v.1.15,2013-01-03 09:53:00,
2013-01-03 04:58:00,16.9,16.9,30.02,NW,315,6.0,-999.0,100,0.00,,,0.00,Wunderground v.1.15,2013-01-03 09:58:00,
2013-01-03 05:00:00,17.0,17.0,30.02,NW,321,4.0,5.0,100,0.00,,,0.00,Wunderground v.1.15,2013-01-03 10:00:00,
2013-01-03 05:03:00,16.9,16.9,30.02,NW,315,6.0,-999.0,100,0.00,,,0.00,Wunderground v.1.15,2013-01-03 10:03:00,
2013-01-03 05:05:00,17.2,17.2,30.02,NW,306,4.0,5.0,100,0.00,,,0.00,Wunderground v.1.15,2013-01-03 10:05:00,
2013-01-03 05:08:00,16.7,16.7,30.03,NNW,338,4.0,-999.0,100,0.00,,,0.00,Wunderground v.1.15,2013-01-03 10:08:00,
2013-01-03 05:10:00,17.2,17.2,30.02,North,352,4.0,4.0,100,0.00,,,0.00,Wunderground v.1.15,2013-01-03 10:10:00,
2013-01-03 05:13:00,16.7,16.7,30.03,NNW,338,4.0,-999.0,100,0.00,,,0.00,Wunderground v.1.15,2013-01-03 10:13:00,
2013-01-03 05:15:00,17.2,17.2,30.02,NNE,20,2.0,4.0,100,0.00,,,0.00,Wunderground v.1.15,2013-01-03 10:15:00,
2013-01-03 05:18:00,16.7,16.7,30.03,NNW,338,4.0,-999.0,100,0.00,,,0.00,Wunderground v.1.15,2013-01-03 10:18:00,
2013-01-03 05:23:00,16.7,16.7,30.03,NW,315,4.0,-999.0,100,0.00,,,0.00,Wunderground v.1.15,2013-01-03 10:23:00,
2013-01-03 05:25:00,17.3,17.3,30.02,NNW,328,4.0,5.0,100,0.00,,,0.00,Wunderground v.1.15,2013-01-03 10:25:00,
2013-01-03 05:28:00,16.7,16.7,30.03,NW,315,4.0,-999.0,100,0.00,,,0.00,Wunderground v.1.15,2013-01-03 10:28:00,
2013-01-03 05:30:00,17.5,17.5,30.02,North,6,4.0,4.0,100,0.00,,,0.00,Wunderground v.1.15,2013-01-03 10:30:00,
2013-01-03 05:33:00,16.7,16.7,30.03,NW,315,4.0,-999.0,100,0.00,,,0.00,Wunderground v.1.15,2013-01-03 10:33:00,
2013-01-03 05:38:00,16.7,16.7,30.03,NW,315,3.0,-999.0,100,0.00,,,0.00,Wunderground v.1.15,2013-01-03 10:38:00,
2013-01-03 05:40:00,17.3,17.3,30.02,North,350,2.0,2.0,100,0.00,,,0.00,Wunderground v.1.15,2013-01-03 10:40:00,
2013-01-03 05:43:00,16.7,16.7,30.03,NW,315,3.0,-999.0,100,0.00,,,0.00,Wunderground v.1.15,2013-01-03 10:43:00,
2013-01-03 05:45:00,17.5,17.5,30.03,NNW,339,2.0,2.0,100,0.00,,,0.00,Wunderground v.1.15,2013-01-03 10:45:00,
2013-01-03 05:48:00,16.7,16.7,30.03,NW,315,3.0,-999.0,100,0.00,,,0.00,Wunderground v.1.15,2013-01-03 10:48:00,
2013-01-03 05:53:00,17.0,17.0,30.02,North,0,3.0,-999.0,100,0.00,,,0.00,Wunderground v.1.15,2013-01-03 10:53:00,
2013-01-03 05:55:00,17.5,17.5,30.03,NW,326,2.0,3.0,100,0.00,,,0.00,Wunderground v.1.15,2013-01-03 10:55:00,
2013-01-03 05:58:00,17.0,17.0,30.02,North,0,3.0,-999.0,100,0.00,,,0.00,Wunderground v.1.15,2013-01-03 10:58:00,
2013-01-03 06:00:00,17.7,17.7,30.04,North,9,3.0,4.0,100,0.00,,,0.00,Wunderground v.1.15,2013-01-03 11:00:00,
2013-01-03 06:03:00,17.0,17.0,30.02,North,0,3.0,-999.0,100,0.00,,,0.00,Wunderground v.1.15,2013-01-03 11:03:00,
2013-01-03 06:05:00,17.7,17.7,30.04,NW,316,3.0,4.0,100,0.00,,,0.00,Wunderground v.1.15,2013-01-03 11:05:00,
2013-01-03 06:08:00,17.2,17.2,30.02,North,0,3.0,-999.0,100,0.00,,,0.00,Wunderground v.1.15,2013-01-03 11:08:00,
2013-01-03 06:10:00,17.8,17.8,30.04,NNW,333,2.0,7.0,100,0.00,,,0.00,Wunderground v.1.15,2013-01-03 11:10:00,
2013-01-03 06:13:00,17.2,17.2,30.02,North,0,3.0,-999.0,100,0.00,,,0.00,Wunderground v.1.15,2013-01-03 11:13:00,
2013-01-03 06:15:00,18.0,18.0,30.04,NW,321,3.0,7.0,100,0.00,,,0.00,Wunderground v.1.15,2013-01-03 11:15:00,
2013-01-03 06:18:00,17.2,17.2,30.02,North,0,3.0,-999.0,100,0.00,,,0.00,Wunderground v.1.15,2013-01-03 11:18:00,
2013-01-03 06:20:00,18.0,18.0,30.04,NW,308,5.0,6.0,100,0.00,,,0.00,Wunderground v.1.15,2013-01-03 11:20:00,
2013-01-03 06:23:00,17.5,17.5,30.02,North,0,3.0,-999.0,100,0.00,,,0.00,Wunderground v.1.15,2013-01-03 11:23:00,
2013-01-03 06:28:00,17.5,17.5,30.02,North,0,3.0,-999.0,100,0.00,,,0.00,Wunderground v.1.15,2013-01-03 11:28:00,
2013-01-03 06:30:00,17.8,17.8,30.04,North,356,5.0,5.0,100,0.00,,,0.00,Wunderground v.1.15,2013-01-03 11:30:00,
2013-01-03 06:33:00,17.5,17.5,30.02,North,0,3.0,-999.0,100,0.00,,,0.00,Wunderground v.1.15,2013-01-03 11:33:00,
2013-01-03 06:38:00,17.5,17.5,30.03,North,0,2.0,-999.0,100,0.00,,,0.00,Wunderground v.1.15,2013-01-03 11:38:00,
2013-01-03 06:40:00,17.7,17.7,30.04,WNW,301,4.0,4.0,100,0.00,,,0.00,Wunderground v.1.15,2013-01-03 11:40:00,
2013-01-03 06:43:00,17.5,17.5,30.03,North,0,2.0,-999.0,100,0.00,,,0.00,Wunderground v.1.15,2013-01-03 11:43:00,
2013-01-03 06:45:00,17.7,17.7,30.04,NW,318,3.0,4.0,100,0.00,,,0.00,Wunderground v.1.15,2013-01-03 11:45:00,
2013-01-03 06:48:00,17.5,17.5,30.03,North,0,2.0,-999.0,100,0.00,,,0.00,Wunderground v.1.15,2013-01-03 11:48:00,
2013-01-03 06:50:00,17.5,17.5,30.04,NW,305,3.0,5.0,100,0.00,,,0.00,Wunderground v.1.15,2013-01-03 11:50:00,
2013-01-03 06:53:00,17.7,17.7,30.04,NNW,338,3.0,-999.0,100,0.00,,,0.00,Wunderground v.1.15,2013-01-03 11:53:00,
2013-01-03 06:55:00,17.5,17.5,30.04,NW,316,4.0,5.0,100,0.00,,,0.00,Wunderground v.1.15,2013-01-03 11:55:00,
2013-01-03 06:58:00,17.7,17.7,30.04,NNW,338,3.0,-999.0,100,0.00,,,0.00,Wunderground v.1.15,2013-01-03 11:58:00,
2013-01-03 07:00:00,17.5,17.5,30.05,West,281,2.0,4.0,100,0.00,,,0.00,Wunderground v.1.15,2013-01-03 12:00:00,
2013-01-03 07:03:00,17.7,17.7,30.04,NNW,338,3.0,-999.0,100,0.00,,,0.00,Wunderground v.1.15,2013-01-03 12:03:00,
2013-01-03 07:05:00,17.3,17.3,30.05,NW,315,2.0,5.0,100,0.00,,,0.00,Wunderground v.1.15,2013-01-03 12:05:00,
2013-01-03 07:15:00,17.3,17.3,30.05,NW,321,2.0,4.0,100,0.00,,,0.00,Wunderground v.1.15,2013-01-03 12:15:00,
2013-01-03 07:20:00,17.2,17.2,30.05,NW,321,3.0,3.0,100,0.00,,,0.00,Wunderground v.1.15,2013-01-03 12:20:00,
2013-01-03 07:30:00,17.2,17.2,30.05,North,11,3.0,4.0,100,0.00,,,0.00,Wunderground v.1.15,2013-01-03 12:30:00,
2013-01-03 07:35:00,17.0,17.0,30.05,NW,326,3.0,4.0,100,0.00,,,0.00,Wunderground v.1.15,2013-01-03 12:35:00,
2013-01-03 07:45:00,16.9,16.9,30.05,NW,311,3.0,3.0,100,0.00,,,0.00,Wunderground v.1.15,2013-01-03 12:45:00,
2013-01-03 07:55:00,16.7,16.7,30.05,NW,311,2.0,2.0,100,0.00,,,0.00,Wunderground v.1.15,2013-01-03 12:55:00,
2013-01-03 08:00:00,16.7,16.7,30.06,WNW,297,2.0,2.0,100,0.00,,,0.00,Wunderground v.1.15,2013-01-03 13:00:00,
2013-01-03 08:05:00,16.7,16.7,30.06,WNW,291,2.0,3.0,100,0.00,,,0.00,Wunderground v.1.15,2013-01-03 13:05:00,
2013-01-03 08:15:00,16.5,16.5,30.06,West,278,2.0,2.0,100,0.00,,,0.00,Wunderground v.1.15,2013-01-03 13:15:00,
2013-01-03 08:20:00,16.4,16.4,30.06,WNW,294,2.0,2.0,100,0.00,,,0.00,Wunderground v.1.15,2013-01-03 13:20:00,
2013-01-03 08:30:00,16.5,16.5,30.06,NW,304,3.0,3.0,100,0.00,,,0.00,Wunderground v.1.15,2013-01-03 13:30:00,
2013-01-03 08:35:00,16.7,16.7,30.06,WNW,287,3.0,3.0,100,0.00,,,0.00,Wunderground v.1.15,2013-01-03 13:35:00,
2013-01-03 08:40:00,16.7,16.7,30.06,WNW,284,3.0,6.0,100,0.00,,,0.00,Wunderground v.1.15,2013-01-03 13:40:00,
2013-01-03 08:45:00,16.5,16.5,30.07,West,273,4.0,6.0,100,0.00,,,0.00,Wunderground v.1.15,2013-01-03 13:45:00,
2013-01-03 08:50:00,16.4,16.4,30.07,West,266,4.0,5.0,100,0.00,,,0.00,Wunderground v.1.15,2013-01-03 13:50:00,
2013-01-03 09:00:00,15.9,15.9,30.07,West,267,5.0,5.0,100,0.00,,,0.00,Wunderground v.1.15,2013-01-03 14:00:00,
2013-01-03 09:05:00,15.4,15.4,30.07,West,275,5.0,5.0,100,0.00,,,0.00,Wunderground v.1.15,2013-01-03 14:05:00,
2013-01-03 09:15:00,15.7,15.7,30.07,West,267,4.0,4.0,100,0.00,,,0.00,Wunderground v.1.15,2013-01-03 14:15:00,
2013-01-03 09:20:00,15.9,15.9,30.07,West,263,3.0,3.0,100,0.00,,,0.00,Wunderground v.1.15,2013-01-03 14:20:00,
2013-01-03 09:25:00,16.4,16.4,30.07,West,263,3.0,5.0,100,0.00,,,0.00,Wunderground v.1.15,2013-01-03 14:25:00,
2013-01-03 09:30:00,16.2,16.2,30.06,WNW,284,4.0,4.0,100,0.00,,,0.00,Wunderground v.1.15,2013-01-03 14:30:00,
2013-01-03 09:35:00,16.2,16.2,30.06,WNW,287,4.0,4.0,100,0.00,,,0.00,Wunderground v.1.15,2013-01-03 14:35:00,
2013-01-03 09:40:00,16.7,16.7,30.06,WNW,287,3.0,3.0,100,0.00,,,0.00,Wunderground v.1.15,2013-01-03 14:40:00,
2013-01-03 09:45:00,17.5,17.5,30.06,WNW,288,2.0,3.0,100,0.00,,,0.00,Wunderground v.1.15,2013-01-03 14:45:00,
2013-01-03 09:50:00,18.3,18.3,30.06,NW,321,3.0,3.0,100,0.00,,,0.00,Wunderground v.1.15,2013-01-03 14:50:00,
2013-01-03 09:55:00,18.9,18.9,30.06,NW,321,3.0,3.0,100,0.00,,,0.00,Wunderground v.1.15,2013-01-03 14:55:00,
2013-01-03 10:00:00,19.9,19.9,30.06,NW,322,3.0,4.0,100,0.00,,,0.00,Wunderground v.1.15,2013-01-03 15:00:00,
2013-01-03 10:10:00,19.9,19.9,30.06,NNW,340,5.0,6.0,100,0.00,,,0.00,Wunderground v.1.15,2013-01-03 15:10:00,
2013-01-03 10:15:00,20.2,20.2,30.05,North,359,5.0,6.0,100,0.00,,,0.00,Wunderground v.1.15,2013-01-03 15:15:00,
2013-01-03 10:20:00,20.3,20.3,30.05,NNW,329,4.0,4.0,100,0.00,,,0.00,Wunderground v.1.15,2013-01-03 15:20:00,
2013-01-03 10:30:00,20.8,20.8,30.05,NW,314,4.0,6.0,100,0.00,,,0.00,Wunderground v.1.15,2013-01-03 15:30:00,
2013-01-03 10:35:00,21.1,21.1,30.05,NNW,347,4.0,6.0,100,0.00,,,0.00,Wunderground v.1.15,2013-01-03 15:35:00,
2013-01-03 10:40:00,21.1,21.1,30.05,NW,321,4.0,4.0,100,0.00,,,0.00,Wunderground v.1.15,2013-01-03 15:40:00,
2013-01-03 10:45:00,21.4,21.4,30.05,North,7,5.0,6.0,100,0.00,,,0.00,Wunderground v.1.15,2013-01-03 15:45:00,
2013-01-03 10:50:00,21.4,21.4,30.05,WNW,297,5.0,6.0,100,0.00,,,0.00,Wunderground v.1.15,2013-01-03 15:50:00,
2013-01-03 11:00:00,21.4,21.4,30.03,NNW,330,5.0,5.0,100,0.00,,,0.00,Wunderground v.1.15,2013-01-03 16:00:00,
2013-01-03 11:05:00,21.6,21.6,30.03,North,353,4.0,5.0,100,0.00,,,0.00,Wunderground v.1.15,2013-01-03 16:05:00,
2013-01-03 11:15:00,21.8,21.8,30.03,North,7,5.0,5.0,100,0.00,,,0.00,Wunderground v.1.15,2013-01-03 16:15:00,
2013-01-03 11:25:00,22.2,22.2,30.03,NW,321,5.0,6.0,100,0.00,,,0.00,Wunderground v.1.15,2013-01-03 16:25:00,
2013-01-03 11:30:00,22.1,22.1,30.02,WNW,302,5.0,9.0,100,0.00,,,0.00,Wunderground v.1.15,2013-01-03 16:30:00,
2013-01-03 11:35:00,23.0,23.0,30.02,North,357,5.0,9.0,100,0.00,,,0.00,Wunderground v.1.15,2013-01-03 16:35:00,
2013-01-03 11:40:00,22.4,22.4,30.02,NNW,328,5.0,5.0,100,0.00,,,0.00,Wunderground v.1.15,2013-01-03 16:40:00,
2013-01-03 11:45:00,22.5,22.5,30.01,NNW,329,4.0,5.0,100,0.00,,,0.00,Wunderground v.1.15,2013-01-03 16:45:00,
2013-01-03 11:55:00,22.7,22.7,30.01,NNE,14,4.0,4.0,100,0.00,,,0.00,Wunderground v.1.15,2013-01-03 16:55:00,
2013-01-03 12:00:00,22.5,22.5,30.00,NNE,17,4.0,12.0,100,0.00,,,0.00,Wunderground v.1.15,2013-01-03 17:00:00,
2013-01-03 12:05:00,22.4,22.4,30.00,NNE,13,4.0,12.0,100,0.00,,,0.00,Wunderground v.1.15,2013-01-03 17:05:00,
2013-01-03 12:15:00,23.0,23.0,30.00,North,349,5.0,8.0,100,0.00,,,0.00,Wunderground v.1.15,2013-01-03 17:15:00,
2013-01-03 12:20:00,23.8,23.8,30.00,NW,306,4.0,7.0,100,0.00,,,0.00,Wunderground v.1.15,2013-01-03 17:20:00,
2013-01-03 12:30:00,24.1,24.1,30.00,North,7,5.0,5.0,100,0.00,,,0.00,Wunderground v.1.15,2013-01-03 17:30:00,
2013-01-03 12:40:00,23.6,23.6,30.00,NW,323,5.0,5.0,100,0.00,,,0.00,Wunderground v.1.15,2013-01-03 17:40:00,
2013-01-03 12:45:00,23.5,23.5,30.00,WNW,298,5.0,5.0,100,0.00,,,0.00,Wunderground v.1.15,2013-01-03 17:45:00,
2013-01-03 12:50:00,23.9,23.9,30.00,NW,315,5.0,5.0,100,0.00,,,0.00,Wunderground v.1.15,2013-01-03 17:50:00,
2013-01-03 12:55:00,24.2,24.2,30.00,NNW,340,4.0,5.0,100,0.00,,,0.00,Wunderground v.1.15,2013-01-03 17:55:00,
2013-01-03 13:00:00,24.2,24.2,30.00,NW,316,3.0,6.0,100,0.00,,,0.00,Wunderground v.1.15,2013-01-03 18:00:00,
2013-01-03 13:05:00,24.7,24.7,30.00,WNW,302,4.0,6.0,100,0.00,,,0.00,Wunderground v.1.15,2013-01-03 18:05:00,
2013-01-03 13:10:00,25.1,25.1,30.00,NW,325,5.0,5.0,100,0.00,,,0.00,Wunderground v.1.15,2013-01-03 18:10:00,
2013-01-03 13:15:00,25.4,25.4,29.99,NW,314,5.0,5.0,100,0.00,,,0.00,Wunderground v.1.15,2013-01-03 18:15:00,
2013-01-03 13:20:00,25.6,25.6,29.99,NW,315,4.0,4.0,100,0.00,,,0.00,Wunderground v.1.15,2013-01-03 18:20:00,
2013-01-03 13:25:00,25.6,25.6,29.99,NW,314,3.0,4.0,100,0.00,,,0.00,Wunderground v.1.15,2013-01-03 18:25:00,
2013-01-03 13:30:00,25.8,25.8,29.99,NW,314,3.0,3.0,100,0.00,,,0.00,Wunderground v.1.15,2013-01-03 18:30:00,
2013-01-03 13:35:00,25.8,25.8,29.99,NW,319,3.0,6.0,100,0.00,,,0.00,Wunderground v.1.15,2013-01-03 18:35:00,
2013-01-03 13:45:00,25.8,25.8,29.98,NW,312,4.0,5.0,100,0.00,,,0.00,Wunderground v.1.15,2013-01-03 18:45:00,
2013-01-03 13:50:00,26.0,26.0,29.98,NW,312,3.0,5.0,100,0.00,,,0.00,Wunderground v.1.15,2013-01-03 18:50:00,
2013-01-03 14:00:00,25.6,25.6,29.98,NW,312,2.0,5.0,100,0.00,,,0.00,Wunderground v.1.15,2013-01-03 19:00:00,
2013-01-03 14:05:00,25.3,25.3,29.98,NW,312,3.0,5.0,100,0.00,,,0.00,Wunderground v.1.15,2013-01-03 19:05:00,
2013-01-03 14:10:00,25.0,25.0,29.98,NW,319,2.0,2.0,100,0.00,,,0.00,Wunderground v.1.15,2013-01-03 19:10:00,
2013-01-03 14:15:00,25.3,25.3,29.98,NW,319,2.0,2.0,100,0.00,,,0.00,Wunderground v.1.15,2013-01-03 19:15:00,
2013-01-03 15:00:00,25.3,25.3,29.98,West,274,4.0,5.0,100,0.00,,,0.00,Wunderground v.1.15,2013-01-03 20:00:00,
2013-01-03 15:05:00,25.3,25.3,29.98,West,275,4.0,7.0,100,0.00,,,0.00,Wunderground v.1.15,2013-01-03 20:05:00,
2013-01-03 15:15:00,25.0,25.0,29.98,West,266,4.0,4.0,100,0.00,,,0.00,Wunderground v.1.15,2013-01-03 20:15:00,
2013-01-03 15:20:00,25.0,25.0,29.98,West,266,4.0,4.0,100,0.00,,,0.00,Wunderground v.1.15,2013-01-03 20:20:00,
2013-01-03 15:25:00,24.8,24.8,29.98,West,271,4.0,5.0,100,0.00,,,0.00,Wunderground v.1.15,2013-01-03 20:25:00,
2013-01-03 15:30:00,24.7,24.7,29.98,West,271,4.0,5.0,100,0.00,,,0.00,Wunderground v.1.15,2013-01-03 20:30:00,
2013-01-03 15:40:00,24.4,24.4,29.98,West,271,3.0,3.0,100,0.00,,,0.00,Wunderground v.1.15,2013-01-03 20:40:00,
2013-01-03 15:45:00,24.1,24.1,29.98,West,275,3.0,3.0,100,0.00,,,0.00,Wunderground v.1.15,2013-01-03 20:45:00,
2013-01-03 15:50:00,23.9,23.9,29.98,West,275,3.0,3.0,100,0.00,,,0.00,Wunderground v.1.15,2013-01-03 20:50:00,
2013-01-03 16:00:00,23.5,23.5,29.98,West,275,3.0,3.0,100,0.00,,,0.00,Wunderground v.1.15,2013-01-03 21:00:00,
2013-01-03 16:05:00,23.3,23.3,29.98,West,275,2.0,3.0,100,0.00,,,0.00,Wunderground v.1.15,2013-01-03 21:05:00,
2013-01-03 16:10:00,23.0,23.0,29.98,West,275,2.0,3.0,100,0.00,,,0.00,Wunderground v.1.15,2013-01-03 21:10:00,
2013-01-03 16:20:00,22.5,22.5,29.98,West,275,3.0,3.0,100,0.00,,,0.00,Wunderground v.1.15,2013-01-03 21:20:00,
2013-01-03 16:25:00,22.2,22.2,29.98,West,275,2.0,4.0,100,0.00,,,0.00,Wunderground v.1.15,2013-01-03 21:25:00,
2013-01-03 16:30:00,22.1,22.1,29.98,West,275,2.0,3.0,100,0.00,,,0.00,Wunderground v.1.15,2013-01-03 21:30:00,
2013-01-03 16:35:00,21.8,21.8,29.98,West,275,2.0,3.0,100,0.00,,,0.00,Wunderground v.1.15,2013-01-03 21:35:00,
2013-01-03 16:40:00,21.6,21.6,29.98,West,275,1.0,2.0,100,0.00,,,0.00,Wunderground v.1.15,2013-01-03 21:40:00,
2013-01-03 16:45:00,21.3,21.3,29.98,West,275,1.0,2.0,100,0.00,,,0.00,Wunderground v.1.15,2013-01-03 21:45:00,
2013-01-03 16:55:00,20.8,20.8,29.98,West,275,2.0,2.0,100,0.00,,,0.00,Wunderground v.1.15,2013-01-03 21:55:00,
2013-01-03 17:00:00,20.6,20.6,29.98,West,275,2.0,5.0,100,0.00,,,0.00,Wunderground v.1.15,2013-01-03 22:00:00,
2013-01-03 17:10:00,20.3,20.3,29.98,West,275,2.0,3.0,100,0.00,,,0.00,Wunderground v.1.15,2013-01-03 22:10:00,
2013-01-03 17:15:00,20.3,20.3,29.98,West,275,2.0,3.0,100,0.00,,,0.00,Wunderground v.1.15,2013-01-03 22:15:00,
2013-01-03 17:20:00,20.2,20.2,29.98,West,275,2.0,3.0,100,0.00,,,0.00,Wunderground v.1.15,2013-01-03 22:20:00,
2013-01-03 17:25:00,20.2,20.2,29.98,West,275,2.0,3.0,100,0.00,,,0.00,Wunderground v.1.15,2013-01-03 22:25:00,
2013-01-03 17:30:00,20.0,20.0,29.98,West,275,2.0,3.0,100,0.00,,,0.00,Wunderground v.1.15,2013-01-03 22:30:00,
2013-01-03 17:40:00,19.9,19.9,29.98,West,275,3.0,4.0,100,0.00,,,0.00,Wunderground v.1.15,2013-01-03 22:40:00,
2013-01-03 17:45:00,20.0,20.0,29.98,West,275,3.0,4.0,100,0.00,,,0.00,Wunderground v.1.15,2013-01-03 22:45:00,
2013-01-03 17:50:00,20.0,20.0,29.98,West,275,4.0,6.0,100,0.00,,,0.00,Wunderground v.1.15,2013-01-03 22:50:00,
2013-01-03 18:00:00,20.2,20.2,29.97,West,277,3.0,3.0,100,0.00,,,0.00,Wunderground v.1.15,2013-01-03 23:00:00,
2013-01-03 18:05:00,20.2,20.2,29.97,West,277,3.0,4.0,100,0.00,,,0.00,Wunderground v.1.15,2013-01-03 23:05:00,
2013-01-03 18:15:00,20.2,20.2,29.98,West,277,3.0,3.0,100,0.00,,,0.00,Wunderground v.1.15,2013-01-03 23:15:00,
2013-01-03 18:20:00,20.2,20.2,29.98,West,277,3.0,3.0,100,0.00,,,0.00,Wunderground v.1.15,2013-01-03 23:20:00,
2013-01-03 18:25:00,20.2,20.2,29.98,West,280,3.0,3.0,100,0.00,,,0.00,Wunderground v.1.15,2013-01-03 23:25:00,
2013-01-03 18:30:00,20.2,20.2,29.98,West,280,3.0,6.0,100,0.00,,,0.00,Wunderground v.1.15,2013-01-03 23:30:00,
2013-01-03 18:35:00,20.2,20.2,29.98,West,280,3.0,6.0,100,0.00,,,0.00,Wunderground v.1.15,2013-01-03 23:35:00,
2013-01-03 18:45:00,20.2,20.2,29.99,WNW,285,4.0,4.0,100,0.00,,,0.00,Wunderground v.1.15,2013-01-03 23:45:00,
2013-01-03 18:55:00,20.0,20.0,29.99,WNW,288,4.0,6.0,100,0.00,,,0.00,Wunderground v.1.15,2013-01-03 23:55:00,
2013-01-03 19:00:00,20.2,20.2,29.98,WNW,284,5.0,5.0,100,0.00,,,0.00,Wunderground v.1.15,2013-01-04 00:00:00,
2013-01-03 19:10:00,20.0,20.0,29.98,WNW,290,4.0,4.0,100,0.00,,,0.00,Wunderground v.1.15,2013-01-04 00:10:00,
2013-01-03 19:15:00,20.0,20.0,29.99,WNW,292,4.0,4.0,100,0.00,,,0.00,Wunderground v.1.15,2013-01-04 00:15:00,
2013-01-03 19:20:00,20.2,20.2,29.99,WNW,294,4.0,4.0,100,0.00,,,0.00,Wunderground v.1.15,2013-01-04 00:20:00,
2013-01-03 19:25:00,20.2,20.2,29.99,WNW,294,4.0,6.0,100,0.00,,,0.00,Wunderground v.1.15,2013-01-04 00:25:00,
2013-01-03 19:30:00,20.3,20.3,30.00,NW,304,4.0,4.0,100,0.00,,,0.00,Wunderground v.1.15,2013-01-04 00:30:00,
2013-01-03 19:35:00,20.5,20.5,30.00,NW,305,5.0,5.0,100,0.00,,,0.00,Wunderground v.1.15,2013-01-04 00:35:00,
2013-01-03 19:40:00,20.5,20.5,30.00,WNW,301,4.0,4.0,100,0.00,,,0.00,Wunderground v.1.15,2013-01-04 00:40:00,
2013-01-03 19:45:00,20.5,20.5,30.00,WNW,301,4.0,4.0,100,0.00,,,0.00,Wunderground v.1.15,2013-01-04 00:45:00,
2013-01-03 19:50:00,20.6,20.6,30.00,WNW,298,4.0,4.0,100,0.00,,,0.00,Wunderground v.1.15,2013-01-04 00:50:00,
2013-01-03 20:00:00,20.8,20.8,30.00,WNW,298,3.0,3.0,100,0.00,,,0.00,Wunderground v.1.15,2013-01-04 01:00:00,
2013-01-03 20:05:00,21.0,21.0,30.00,WNW,297,4.0,4.0,100,0.00,,,0.00,Wunderground v.1.15,2013-01-04 01:05:00,
2013-01-03 20:10:00,21.1,21.1,30.00,WNW,297,4.0,4.0,100,0.00,,,0.00,Wunderground v.1.15,2013-01-04 01:10:00,
2013-01-03 20:15:00,21.3,21.3,30.00,WNW,298,4.0,4.0,100,0.00,,,0.00,Wunderground v.1.15,2013-01-04 01:15:00,
2013-01-03 20:20:00,21.4,21.4,30.00,WNW,298,4.0,4.0,100,0.00,,,0.00,Wunderground v.1.15,2013-01-04 01:20:00,
2013-01-03 20:25:00,21.4,21.4,30.00,WNW,301,4.0,4.0,100,0.00,,,0.00,Wunderground v.1.15,2013-01-04 01:25:00,
2013-01-03 20:30:00,21.8,21.8,29.99,WNW,301,4.0,8.0,100,0.00,,,0.00,Wunderground v.1.15,2013-01-04 01:30:00,
2013-01-03 20:35:00,21.9,21.9,29.99,WNW,299,3.0,8.0,100,0.00,,,0.00,Wunderground v.1.15,2013-01-04 01:35:00,
2013-01-03 20:40:00,22.1,22.1,29.99,WNW,299,4.0,4.0,100,0.00,,,0.00,Wunderground v.1.15,2013-01-04 01:40:00,
2013-01-03 20:45:00,22.1,22.1,29.99,WNW,302,4.0,4.0,100,0.00,,,0.00,Wunderground v.1.15,2013-01-04 01:45:00,
2013-01-03 20:55:00,22.2,22.2,29.99,WNW,295,3.0,5.0,100,0.00,,,0.00,Wunderground v.1.15,2013-01-04 01:55:00,
2013-01-03 21:00:00,22.4,22.4,30.00,WNW,295,3.0,3.0,100,0.00,,,0.00,Wunderground v.1.15,2013-01-04 02:00:00,
2013-01-03 21:05:00,22.4,22.4,30.00,WNW,295,3.0,10.0,100,0.00,,,0.00,Wunderground v.1.15,2013-01-04 02:05:00,
2013-01-03 21:15:00,22.5,22.5,30.00,WNW,295,4.0,5.0,100,0.00,,,0.00,Wunderground v.1.15,2013-01-04 02:15:00,
2013-01-03 21:25:00,22.7,22.7,30.00,WNW,297,3.0,4.0,100,0.00,,,0.00,Wunderground v.1.15,2013-01-04 02:25:00,
2013-01-03 21:30:00,22.7,22.7,30.00,WNW,297,2.0,3.0,100,0.00,,,0.00,Wunderground v.1.15,2013-01-04 02:30:00,
2013-01-03 21:35:00,22.7,22.7,30.00,WNW,294,3.0,3.0,100,0.00,,,0.00,Wunderground v.1.15,2013-01-04 02:35:00,
2013-01-03 21:45:00,22.9,22.9,30.00,WNW,294,3.0,6.0,100,0.00,,,0.00,Wunderground v.1.15,2013-01-04 02:45:00,
2013-01-03 21:50:00,22.9,22.9,30.00,WNW,295,3.0,10.0,100,0.00,,,0.00,Wunderground v.1.15,2013-01-04 02:50:00,
2013-01-03 21:55:00,22.9,22.9,30.00,WNW,294,3.0,10.0,100,0.00,,,0.00,Wunderground v.1.15,2013-01-04 02:55:00,
2013-01-03 22:00:00,23.0,23.0,30.00,WNW,295,4.0,4.0,100,0.00,,,0.00,Wunderground v.1.15,2013-01-04 03:00:00,
2013-01-03 22:05:00,23.0,23.0,30.00,WNW,297,4.0,4.0,100,0.00,,,0.00,Wunderground v.1.15,2013-01-04 03:05:00,
2013-01-03 22:10:00,22.9,22.9,30.00,WNW,297,3.0,6.0,100,0.00,,,0.00,Wunderground v.1.15,2013-01-04 03:10:00,
2013-01-03 22:15:00,22.9,22.9,30.00,WNW,297,3.0,6.0,100,0.00,,,0.00,Wunderground v.1.15,2013-01-04 03:15:00,
2013-01-03 22:25:00,22.7,22.7,30.00,WNW,297,4.0,4.0,100,0.00,,,0.00,Wunderground v.1.15,2013-01-04 03:25:00,
2013-01-03 22:30:00,22.5,22.5,30.00,WNW,295,3.0,5.0,100,0.00,,,0.00,Wunderground v.1.15,2013-01-04 03:30:00,
2013-01-03 22:35:00,22.5,22.5,30.00,WNW,295,3.0,5.0,100,0.00,,,0.00,Wunderground v.1.15,2013-01-04 03:35:00,
2013-01-03 22:40:00,22.4,22.4,30.00,WNW,295,3.0,3.0,100,0.00,,,0.00,Wunderground v.1.15,2013-01-04 03:40:00,
2013-01-03 22:45:00,22.2,22.2,30.00,WNW,295,2.0,3.0,100,0.00,,,0.00,Wunderground v.1.15,2013-01-04 03:45:00,
2013-01-03 22:50:00,22.2,22.2,30.00,WNW,295,3.0,3.0,100,0.00,,,0.00,Wunderground v.1.15,2013-01-04 03:50:00,
2013-01-03 23:00:00,21.9,21.9,29.99,WNW,295,2.0,2.0,100,0.00,,,0.00,Wunderground v.1.15,2013-01-04 04:00:00,
2013-01-03 23:10:00,21.8,21.8,29.99,WNW,295,2.0,2.0,100,0.00,,,0.00,Wunderground v.1.15,2013-01-04 04:10:00,
2013-01-03 23:15:00,21.6,21.6,29.99,WNW,295,3.0,3.0,100,0.00,,,0.00,Wunderground v.1.15,2013-01-04 04:15:00,
2013-01-03 23:20:00,21.6,21.6,29.99,WNW,295,3.0,3.0,100,0.00,,,0.00,Wunderground v.1.15,2013-01-04 04:20:00,
2013-01-03 23:25:00,21.4,21.4,29.99,WNW,295,2.0,3.0,100,0.00,,,0.00,Wunderground v.1.15,2013-01-04 04:25:00,
2013-01-03 23:30:00,21.4,21.4,29.98,WNW,295,2.0,2.0,100,0.00,,,0.00,Wunderground v.1.15,2013-01-04 04:30:00,
2013-01-03 23:35:00,21.3,21.3,29.98,WNW,295,2.0,3.0,100,0.00,,,0.00,Wunderground v.1.15,2013-01-04 04:35:00,
2013-01-03 23:45:00,21.1,21.1,29.98,WNW,295,2.0,4.0,100,0.00,,,0.00,Wunderground v.1.15,2013-01-04 04:45:00,
2013-01-03 23:50:00,21.1,21.1,29.98,WNW,295,2.0,3.0,100,0.00,,,0.00,Wunderground v.1.15,2013-01-04 04:50:00,